SCP
0 0 0 0 0 0 0 0 0 0 0 0 0 0 0 0 0 0 0 0 0 0 1 1 1 0 0 0 0 0 0 0 0 0 0 0 0 0 0 0 0 0 0
0 0 0 0 0 0 0 0 0 0 0 0 0 0 0 0 0 0 0 0 0 0 1 1 1 0 0 0 0 0 0 0 0 0 0 0 0 0 0 0 0 0 0
0 0 0 0 0 0 0 0 0 0 0 0 0 0 0 0 0 0 0 0 0 0 0 1 1 1 0 0 0 0 0 0 0 0 0 0 0 0 0 0 0 0 0
0 0 0 0 0 0 0 0 0 0 0 0 0 0 0 0 0 0 0 0 0 0 0 1 1 1 1 0 0 0 0 0 0 0 0 0 0 0 0 0 0 0 0
0 0 0 0 0 0 0 0 0 0 0 0 0 0 0 0 0 0 0 0 0 0 0 0 1 1 1 1 0 0 0 0 0 0 0 0 0 0 0 0 0 0 0
0 0 0 0 0 0 0 0 0 0 0 0 0 0 0 0 0 0 0 0 0 0 0 0 1 1 1 1 0 0 0 0 0 0 0 0 0 0 0 0 0 0 0
0 0 0 0 0 0 0 0 0 0 0 0 0 0 0 0 0 0 0 0 0 0 0 0 0 0 0 0 0 0 0 0 0 0 0 0 0 0 0 0 0 0 0
0 0 0 0 0 0 0 0 0 0 0 0 0 0 0 0 0 0 0 0 0 0 0 0 0 0 0 0 0 0 0 0 0 0 0 0 0 0 0 0 0 0 0
0 0 0 0 0 0 0 0 0 0 0 0 0 0 0 0 0 0 0 0 0 0 0 0 0 0 0 0 0 0 0 0 0 0 0 0 0 0 0 0 0 0 0
0 0 0 0 0 0 0 0 0 0 0 0 0 0 0 0 0 0 0 0 0 0 0 0 0 0 0 0 0 0 0 0 0 0 0 0 0 0 0 0 0 0 0
0 0 0 0 0 0 0 0 0 0 0 0 0 0 0 0 0 0 0 0 0 0 0 0 0 0 0 0 0 0 0 0 0 0 0 0 0 0 0 0 0 0 0
0 0 0 0 0 0 0 0 0 0 0 0 0 0 0 0 0 0 0 0 0 0 0 0 0 0 0 0 0 0 0 0 0 0 0 0 0 0 0 0 0 0 0
0 0 0 0 0 0 0 0 0 0 0 0 0 0 0 0 0 0 0 0 0 0 0 0 0 0 0 0 0 0 0 0 0 0 0 0 0 0 0 0 0 0 0
0 0 0 0 0 0 0 0 0 0 0 0 0 0 0 0 0 0 0 0 0 0 0 0 0 0 0 0 0 0 0 0 0 0 0 0 0 0 0 0 0 0 0
0 0 0 0 0 0 0 0 0 0 0 0 0 0 0 0 0 0 0 0 0 0 0 0 0 0 0 0 0 0 0 0 0 0 0 0 0 0 0 0 0 0 0
0 0 0 0 0 0 0 0 0 0 0 0 0 0 0 0 0 0 0 0 0 0 0 0 0 0 0 0 0 0 0 0 0 0 0 0 0 0 0 0 0 0 0
0 0 0 0 0 0 0 0 0 0 0 0 0 0 0 0 0 0 0 0 0 0 0 0 0 0 0 0 0 0 0 0 0 0 0 0 0 0 0 0 0 0 0
0 0 0 0 0 0 0 0 0 0 0 0 0 0 0 0 0 0 0 0 0 0 0 0 0 0 0 0 0 0 0 0 0 0 0 0 0 0 0 0 0 0 0
0 0 0 0 0 0 0 0 0 0 0 0 0 0 0 0 0 0 0 0 0 0 0 0 0 0 0 0 0 0 0 0 0 0 0 0 0 0 0 0 0 0 0
0 0 0 0 0 0 0 0 0 0 0 0 0 0 0 0 0 0 0 0 0 0 0 0 0 0 0 0 0 0 0 0 0 0 0 0 0 0 0 0 0 0 0
0 0 0 0 0 0 0 0 0 0 0 0 0 0 0 0 0 0 0 0 0 0 0 0 0 0 0 0 0 0 0 0 0 0 0 0 0 0 0 0 0 0 0
0 0 0 0 0 0 0 0 0 0 0 0 0 0 0 0 0 0 0 0 0 0 0 0 0 0 0 0 0 0 0 0 0 0 0 0 0 0 0 0 0 0 0
0 0 0 0 0 0 0 0 0 0 0 0 0 0 0 0 0 0 0 0 0 0 0 0 0 0 0 0 0 0 0 0 0 0 0 0 0 0 0 0 0 0 0
0 0 0 0 0 0 0 0 0 0 0 0 0 0 0 0 0 0 0 0 0 0 0 0 0 0 0 0 0 0 0 0 0 0 0 0 0 0 0 0 0 0 0
0 0 0 0 0 0 0 0 0 0 0 0 0 0 0 0 0 0 0 0 0 0 0 0 0 0 0 0 0 0 0 0 0 0 0 0 0 0 0 0 0 0 0
0 0 0 0 0 0 0 0 0 0 0 0 0 0 0 0 0 0 0 0 0 0 0 0 0 0 0 0 0 0 0 0 0 0 0 0 0 0 0 0 0 0 0
Wind_Speed
3 3 2 2 3 2 2 3 3 3 3 3 2 2 3 3 4 3 3 6 8 8 8 8 7 7 6 6 5 4 4 3 3 3 3 3 4 5 5 6 6 7 8
4 4 4 3 3 3 3 3 4 3 3 3 4 4 4 4 4 5 4 5 8 9 10 10 10 9 9 8 7 7 6 5 5 4 3 3 3 4 4 5 5 6 6
5 4 4 4 4 4 4 3 4 3 3 3 5 5 4 5 5 6 6 4 5 8 11 13 13 12 11 11 10 9 8 7 7 6 5 4 3 3 3 4 4 4 5
6 5 5 5 5 4 4 4 4 4 5 5 5 5 5 4 6 6 5 6 5 5 8 14 14 14 14 13 13 12 11 10 9 8 7 6 5 4 3 3 3 3 3
7 6 6 5 5 4 5 5 5 4 5 6 6 5 5 5 6 6 6 8 7 7 6 10 13 13 14 15 15 14 13 12 11 10 9 8 7 6 5 4 3 2 1
7 6 6 6 5 5 5 6 7 6 5 5 4 4 4 5 4 6 7 7 7 8 8 7 7 9 13 16 17 16 15 15 14 13 11 10 9 8 7 5 4 3 2
6 6 5 5 5 6 7 7 6 6 5 2 2 3 4 4 5 6 5 5 6 7 6 7 6 5 6 15 18 18 17 16 16 15 13 12 11 10 8 7 6 5 4
4 4 6 5 5 5 6 6 6 4 3 4 3 2 3 3 4 5 4 5 6 4 6 7 6 6 5 5 9 16 18 18 17 16 15 14 13 11 10 8 7 6 5
3 3 4 4 4 5 5 6 6 6 5 4 4 4 3 4 3 2 3 4 4 4 4 4 6 7 6 5 5 10 14 16 18 17 17 16 14 13 11 10 8 7 5
3 2 3 3 4 4 5 5 5 5 5 4 3 4 5 2 2 3 2 2 2 4 4 4 5 6 6 5 7 10 12 14 18 18 17 16 16 14 12 10 8 6 5
3 4 3 2 3 3 4 4 4 4 4 4 4 3 4 3 4 4 5 3 2 3 3 4 4 4 5 6 5 9 14 17 19 18 17 15 14 13 12 11 8 5 3
3 4 4 3 3 2 3 3 3 4 4 4 4 3 4 3 4 5 6 4 3 3 2 2 3 3 3 4 7 12 15 19 20 19 17 16 14 12 10 9 6 3 1
3 4 4 3 3 3 3 2 2 2 2 3 3 2 3 4 3 3 3 3 3 2 2 2 1 2 2 2 4 10 14 18 19 19 18 16 13 9 6 4 3 2 2
2 4 4 4 4 4 3 2 1 1 1 1 1 1 1 1 1 2 2 2 3 2 2 3 1 2 2 2 4 9 8 16 17 17 16 13 8 5 4 4 4 5 6
3 4 4 4 5 5 5 4 3 3 3 3 3 2 2 2 1 1 1 2 2 3 3 2 1 2 2 1 3 2 2 10 13 13 12 8 5 4 5 6 7 7 8
4 4 5 5 6 6 6 5 4 5 5 5 4 5 5 3 3 3 2 1 1 2 3 0 0 2 2 2 2 0 1 6 7 8 7 5 5 6 7 8 8 9 9
5 5 5 5 6 7 6 6 6 6 7 7 6 6 6 5 4 4 3 3 2 1 2 1 1 1 2 1 2 2 2 2 1 2 2 3 4 5 5 6 7 8 9
5 5 6 6 7 7 7 7 7 7 7 7 7 7 6 5 6 4 4 4 3 2 1 1 1 2 2 2 2 3 3 3 2 2 3 4 5 5 6 7 7 8 8
6 6 6 7 7 7 7 7 7 8 8 7 7 7 6 6 6 4 4 4 3 3 2 1 2 2 2 2 2 3 3 3 2 2 3 4 4 5 6 6 7 8 9
6 6 6 6 6 7 7 7 7 7 7 7 7 6 6 5 5 4 4 4 3 3 3 2 2 2 2 2 2 2 2 2 2 2 3 3 4 5 6 8 9 10 10
6 6 6 6 6 6 6 6 6 7 7 7 7 7 7 9 8 5 4 3 3 3 3 3 2 2 2 2 2 2 2 1 1 2 2 1 2 2 4 7 10 11 13
6 6 6 6 7 7 11 11 8 6 6 6 6 6 6 8 10 12 11 10 7 4 3 2 2 2 2 2 2 2 1 1 1 1 2 3 2 4 4 3 8 12 12
6 6 6 6 6 8 12 12 12 6 6 5 5 5 5 6 7 5 8 11 11 12 8 3 2 2 1 1 1 1 1 0 1 2 1 3 2 3 4 5 10 11 12
4 4 5 5 5 6 10 10 11 6 5 4 4 4 4 4 4 5 5 5 5 6 6 4 2 1 0 1 1 1 1 1 2 2 2 3 3 3 4 4 10 11 10
4 3 3 4 4 4 7 8 8 3 3 4 3 3 3 3 7 8 5 4 4 4 6 7 5 4 4 3 1 2 1 1 2 2 0 2 2 3 3 3 4 6 6
3 3 3 2 3 3 4 6 6 2 2 2 3 4 6 5 7 6 3 2 2 2 2 3 4 5 4 4 4 2 3 2 1 3 2 1 2 3 5 3 2 3 4
Wind_Direction
197 203 212 215 219 213 214 224 235 248 260 268 254 237 242 244 241 237 251 259 253 241 232 229 225 225 228 228 221 204 191 181 171 152 131 114 105 97 91 86 83 80 79
201 206 217 221 224 219 217 219 227 237 249 254 262 247 236 234 235 232 232 248 249 242 236 234 232 229 227 226 224 216 209 206 196 182 172 152 135 120 108 96 87 82 80
207 210 218 225 227 221 221 226 234 231 243 242 252 252 239 228 228 227 224 224 237 240 236 234 234 232 228 226 225 219 214 216 212 202 191 179 165 148 130 115 100 89 82
209 211 220 230 226 216 215 225 231 234 240 238 243 246 239 232 232 230 222 220 221 226 232 233 233 231 229 227 226 222 216 215 216 212 207 198 191 186 173 153 133 113 97
214 214 224 228 216 216 219 227 227 221 239 241 242 246 242 237 238 233 227 224 221 220 220 230 230 228 227 227 228 225 219 214 214 214 213 210 205 204 199 193 183 174 159
218 217 227 226 210 216 224 224 232 227 235 245 252 255 248 240 237 234 235 231 226 225 222 223 226 228 225 226 228 228 224 216 212 215 215 214 213 213 213 213 213 217 223
221 218 227 225 212 220 228 224 226 233 238 213 236 271 269 242 238 239 234 233 235 231 225 224 222 221 227 227 227 228 228 223 215 214 215 216 216 217 220 222 224 228 237
232 226 229 231 220 224 231 227 216 221 223 179 191 237 291 300 261 241 232 235 242 233 232 230 225 224 224 223 226 226 229 229 222 216 215 216 217 217 221 225 228 232 241
259 244 240 238 233 224 234 231 218 221 236 211 193 202 232 254 293 288 248 241 242 234 237 232 228 229 228 227 230 228 227 232 231 225 218 216 216 217 220 224 227 233 242
328 302 274 254 244 235 238 240 225 220 227 231 204 220 232 228 242 293 293 278 252 244 243 238 232 228 224 222 225 230 227 227 231 234 230 221 217 216 218 223 228 235 243
349 344 327 300 274 258 253 249 238 226 224 231 211 197 220 230 226 243 272 284 294 258 239 232 231 229 224 221 216 220 222 225 230 234 239 238 229 220 219 221 221 225 237
343 353 348 341 318 297 279 265 251 240 235 236 226 195 189 197 206 214 246 253 259 263 261 254 244 245 237 225 224 221 221 223 225 226 231 235 236 232 226 224 216 205 225
342 342 346 341 334 325 314 298 267 255 245 243 238 223 211 221 204 204 236 261 264 275 300 300 297 296 271 244 235 226 224 223 223 224 224 227 230 225 215 214 217 240 277
323 335 344 351 355 355 356 3 16 1 4 350 316 261 222 232 213 211 222 249 277 272 265 271 337 329 312 282 248 228 228 224 222 223 223 224 218 194 190 216 237 257 272
344 360 6 15 17 18 19 29 40 32 43 40 30 35 46 32 26 345 239 216 242 277 279 259 283 340 319 293 253 229 216 225 220 221 220 214 198 197 233 247 255 262 267
16 21 27 35 34 31 31 42 45 42 57 47 43 53 49 33 35 27 15 352 257 252 271 327 325 352 325 311 260 128 179 211 218 214 209 210 216 236 250 257 259 262 266
33 40 44 49 46 41 39 50 51 50 61 55 48 56 51 40 41 29 28 29 19 344 279 357 45 357 348 352 26 62 66 77 41 245 247 253 259 261 261 262 265 268 269
43 48 53 56 53 50 49 55 59 56 60 58 50 53 47 47 46 35 37 38 28 13 349 332 19 11 13 19 47 68 66 71 59 3 315 293 281 273 268 268 271 273 275
55 54 58 61 59 58 59 59 64 65 63 60 55 55 48 51 49 38 40 36 24 20 22 50 37 27 24 31 51 57 64 50 56 23 331 317 313 301 289 283 281 280 280
63 62 64 69 69 67 64 65 69 70 67 61 53 51 49 53 57 48 44 36 32 34 35 52 48 36 31 26 49 53 58 43 34 19 349 339 339 337 322 305 292 287 284
69 65 65 66 70 72 71 71 69 70 67 62 51 42 43 48 58 66 64 46 42 43 42 46 40 32 27 25 32 28 52 29 26 21 353 335 331 311 303 298 292 282 274
69 64 61 62 65 70 77 80 79 67 64 59 50 36 35 40 42 46 52 51 51 53 45 46 36 38 24 21 20 31 47 31 341 3 353 293 276 276 273 261 275 275 269
75 67 60 59 62 71 76 78 79 74 66 58 52 41 36 33 45 40 42 42 37 41 50 72 58 34 13 360 61 34 35 35 268 294 340 288 295 281 274 276 287 283 275
79 72 61 54 53 65 77 79 82 73 66 54 48 44 38 15 37 55 47 38 29 28 43 56 78 22 289 234 186 172 193 277 285 270 200 271 298 282 282 285 296 291 277
87 76 67 58 50 40 71 83 86 75 63 41 25 28 38 14 19 43 57 36 20 4 17 29 27 10 355 331 229 130 111 29 312 293 239 252 296 299 290 290 301 313 316
110 100 75 55 43 10 51 85 99 90 65 31 13 8 8 6 6 25 82 45 355 324 342 355 0 358 1 358 22 133 167 167 226 285 279 245 294 333 316 294 272 278 294